Kingsville NAS, TX

9:04 PM CDT on July 25, 2017 (GMT -0500)
Kingsville Naval Air Station

Weather History for KNQI - November, 2012

Change the Weather History Date:

Thursday, November 22, 2012

  Actual Average Record
Temperature  
Mean Temperature 66 °F -  
Max Temperature 82 °F 72 °F 87 °F (2011)
Min Temperature 51 °F 53 °F 37 °F (2005)
Cooling Degree Days 2    
Growing Degree Days 16 (Base 50)    
Moisture  
Dew Point 56 °F    
Average Humidity 89    
Maximum Humidity 100    
Minimum Humidity 42    
Precipitation  
Precipitation 0.01 in - - ()
Sea Level Pressure  
Sea Level Pressure 30.13 in    
Wind  
Wind Speed 3 mph (East)    
Max Wind Speed 16 mph    
Max Gust Speed 23 mph    
Visibility 4 miles    
Events      
Averages and records for this station are not official NWS values.
T = Trace of Precipitation, MM = Missing Value Source: NWS Daily Summary

Daily Weather History Graph

Daily Weather History Graph

Search for Another Location

Airport or City:

Trip Planner

Search our weather history database for the weather conditions in past years. The results will help you decide how hot, cold, wet, or windy it might be!

Date:

Astronomy

Nov. 22, 2012 Rise Set
Actual Time 6:57 AM CST 5:37 PM CST
Civil Twilight 6:32 AM CST 6:02 PM CST
Nautical Twilight 6:04 AM CST 6:30 PM CST
Astronomical Twilight 5:36 AM CST 6:58 PM CST
Moon 2:00 PM CST (11/22) 1:45 AM CST (11/22)
Length of Visible Light 11h 29m
Length of Day
10h 39m
Waxing Gibbous, 71% of the Moon is Illuminated
Nov 22
Waxing Gibbous
Nov 28
Full
Dec 6
Last Quarter
Dec 13
New
Dec 19
First Quarter

Hourly Weather History & Observations

Time (CST) Temp. Heat Index Dew Point Humidity Pressure Visibility Wind Dir Wind Speed Gust Speed Precip Events Conditions
12:03 AM 55.4 °F - 55.4 °F 100% 30.17 in 0.2 mi Calm Calm - N/A   Mist
12:56 AM 54.0 °F - 54.0 °F 100% 30.14 in 0.2 mi ENE 3.5 mph - N/A   Mist
1:12 AM 53.6 °F - 53.6 °F 100% 30.14 in 0.2 mi East 4.6 mph - N/A   Mist
1:22 AM 53.6 °F - 53.6 °F 100% 30.14 in 0.5 mi ENE 3.5 mph - N/A   Mist
1:33 AM 53.6 °F - 53.6 °F 100% 30.14 in 0.2 mi Calm Calm - N/A   Mist
1:41 AM 53.6 °F - 53.6 °F 100% 30.14 in 0.5 mi Calm Calm - N/A   Mist
1:52 AM 53.6 °F - 53.6 °F 100% 30.13 in 1.5 mi East 3.5 mph - N/A   Overcast
1:56 AM 54.0 °F - 53.1 °F 97% 30.12 in 2.5 mi East 3.5 mph - N/A   Overcast
2:05 AM 53.6 °F - 53.6 °F 100% 30.13 in 3.0 mi East 3.5 mph - N/A   Mostly Cloudy
2:17 AM 53.6 °F - 53.6 °F 100% 30.13 in 2.0 mi Calm Calm - N/A   Mostly Cloudy
2:27 AM 51.8 °F - 51.8 °F 100% 30.13 in 0.8 mi Calm Calm - N/A   Mist
2:37 AM 51.8 °F - 51.8 °F 100% 30.13 in 0.2 mi Calm Calm - N/A   Mist
2:56 AM 53.1 °F - 53.1 °F 100% 30.12 in 0.2 mi Calm Calm - N/A   Mist
3:09 AM 51.8 °F - 51.8 °F 100% 30.13 in 0.2 mi Calm Calm - N/A   Mist
3:19 AM 51.8 °F - 51.8 °F 100% 30.13 in 0.8 mi Calm Calm - N/A   Mist
3:33 AM 51.8 °F - 51.8 °F 100% 30.13 in 1.2 mi Calm Calm - N/A   Clear
3:41 AM 51.8 °F - 51.8 °F 100% 30.13 in 2.0 mi Calm Calm - N/A   Clear
3:53 AM 53.6 °F - 53.6 °F 100% 30.12 in 3.0 mi Calm Calm - N/A   Clear
3:56 AM 54.0 °F - 53.1 °F 97% 30.11 in 2.0 mi Calm Calm - N/A   Clear
4:04 AM 53.6 °F - 53.6 °F 100% 30.12 in 1.8 mi NE 3.5 mph - N/A   Clear
4:11 AM 53.6 °F - 53.6 °F 100% 30.12 in 2.5 mi Calm Calm - N/A   Clear
4:22 AM 51.8 °F - 51.8 °F 100% 30.12 in 1.2 mi Calm Calm - N/A   Clear
4:35 AM 53.6 °F - 51.8 °F 94% 30.12 in 2.5 mi Calm Calm - N/A   Clear
4:48 AM 51.8 °F - 51.8 °F 100% 30.13 in 4.0 mi North 3.5 mph - N/A   Clear
4:56 AM 52.0 °F - 51.1 °F 97% 30.12 in 3.0 mi Calm Calm - N/A   Clear
5:21 AM 51.8 °F - 51.8 °F 100% 30.13 in 3.0 mi North 3.5 mph - N/A   Scattered Clouds
5:30 AM 51.8 °F - 51.8 °F 100% 30.13 in 3.0 mi North 3.5 mph - N/A   Mostly Cloudy
5:32 AM 51.8 °F - 51.8 °F 100% 30.13 in 1.8 mi North 3.5 mph - N/A   Mostly Cloudy
5:39 AM 51.8 °F - 51.8 °F 100% 30.13 in 0.2 mi North 3.5 mph - N/A   Mist
5:56 AM 52.0 °F - 52.0 °F 100% 30.13 in 0.2 mi NW 4.6 mph - N/A   Mist
6:12 AM 51.8 °F - 51.8 °F 100% 30.14 in 0.5 mi NNW 3.5 mph - N/A   Mist
6:32 AM 51.8 °F - 51.8 °F 100% 30.14 in 0.2 mi NNW 3.5 mph - N/A   Mist
6:56 AM 52.0 °F - 52.0 °F 100% 30.14 in 0.2 mi NW 4.6 mph - N/A   Mist
7:26 AM 51.8 °F - 51.8 °F 100% 30.15 in 1.0 mi NNW 3.5 mph - N/A   Mist
7:31 AM 53.6 °F - 53.6 °F 100% 30.16 in 0.2 mi North 3.5 mph - N/A   Mist
7:56 AM 55.0 °F - 55.0 °F 100% 30.15 in 0.2 mi Calm Calm - 0.01 in   Mist
8:15 AM 57.2 °F - 57.2 °F 100% 30.17 in 1.0 mi Calm Calm - N/A   Mist
8:25 AM 59.0 °F - 59.0 °F 100% 30.17 in 2.5 mi Calm Calm - N/A   Scattered Clouds
8:32 AM 60.8 °F - 60.8 °F 100% 30.17 in 3.0 mi Calm Calm - N/A   Partly Cloudy
8:56 AM 63.0 °F - 63.0 °F 100% 30.17 in 6.0 mi Calm Calm - N/A   Clear
9:56 AM 75.9 °F - 60.1 °F 58% 30.17 in 10.0 mi SSE 12.7 mph - N/A   Clear
10:56 AM 80.1 °F 80.7 °F 59.0 °F 48% 30.15 in 10.0 mi SE 11.5 mph - N/A   Partly Cloudy
11:56 AM 81.0 °F 81.0 °F 57.0 °F 44% 30.13 in 10.0 mi South 10.4 mph - N/A   Scattered Clouds
12:56 PM 82.0 °F 81.7 °F 57.0 °F 42% 30.09 in 10.0 mi South 12.7 mph 19.6 mph N/A   Mostly Cloudy
1:56 PM 81.0 °F 81.3 °F 59.0 °F 47% 30.06 in 10.0 mi SE 13.8 mph 19.6 mph N/A   Mostly Cloudy
2:56 PM 80.1 °F 80.9 °F 60.1 °F 50% 30.05 in 10.0 mi SE 16.1 mph - N/A   Mostly Cloudy
3:56 PM 78.1 °F - 61.0 °F 56% 30.05 in 10.0 mi SE 11.5 mph 23.0 mph N/A   Scattered Clouds
4:56 PM 77.0 °F - 61.0 °F 58% 30.06 in 10.0 mi SE 12.7 mph - N/A   Overcast
5:56 PM 75.0 °F - 62.1 °F 64% 30.07 in 10.0 mi SE 15.0 mph - N/A   Overcast
6:56 PM 73.9 °F - 63.0 °F 68% 30.09 in 10.0 mi SE 12.7 mph - N/A   Overcast
7:56 PM 73.9 °F - 63.0 °F 68% 30.10 in 10.0 mi SE 10.4 mph - N/A   Overcast
8:56 PM 73.0 °F - 63.0 °F 71% 30.11 in 10.0 mi SE 9.2 mph - N/A   Overcast
9:56 PM 72.0 °F - 64.0 °F 76% 30.11 in 10.0 mi North - - N/A   Overcast
10:56 PM 71.1 °F - 64.0 °F 78% 30.11 in 10.0 mi SSE 6.9 mph - N/A   Overcast
11:56 PM 71.1 °F - 63.0 °F 75% 30.11 in 10.0 mi SE 4.6 mph - N/A   Overcast